Regional Weather Roundup
Issued by NWS

Home | Current Version | Previous Version | Text Only | Print | Product List | Glossary Off
Versions: 1 2 3 4 5 6 7 8 9 10 11 12 13 14 15 16 17 18 19 20 21 22 23 24 25 26 27 28 29 30 31 32 33 34 35 36 37 38 39 40 41 42 43 44 45 46 47 48 49 50

000
ASUS43 KOAX 022110
RWRNE

WEATHER ROUNDUP FOR NEBRASKA
NATIONAL WEATHER SERVICE OMAHA NE
400 PM CDT TUE JUN 02 2015

NOTES: SATELLITE DATA IS BEING USED TO AUGMENT CLOUD COVER ABOVE
       12000 FEET.
       "FAIR" INDICATES FEW OR NO CLOUDS BELOW 12,000 FEET WITH NO
       SIGNIFICANT WEATHER AND/OR OBSTRUCTIONS TO VISIBILITY.

  * THESE STATIONS DO NOT REPORT WEATHER SUCH AS RAIN...SNOW OR FOG.

NEZ001>004-019>022-054>056-022200-
NEBRASKA PANHANDLE

CITY           SKY/WX    TMP DP  RH WIND       PRES   REMARKS
SCOTTSBLUFF    MOSUNNY   86  53  32 MISG      29.83F
ALLIANCE       MOSUNNY   81  60  48 SE8       29.83F
CHADRON        MOSUNNY   83  63  50 CALM      29.80F
KIMBALL          N/A    N/A N/A N/A MISG        N/A
SIDNEY         SUNNY     81  59  47 SW5       29.87F
$$

NEZ057>060-069>072-079>082-022200-
SOUTHWEST NEBRASKA

CITY           SKY/WX    TMP DP  RH WIND       PRES   REMARKS
NORTH PLATTE   MOSUNNY   84  67  56 SE12      29.82F
IMPERIAL       MOSUNNY   83  65  54 SE10      29.82F
LEXINGTON      MOSUNNY   79  68  69 SE17      29.85S
MCCOOK         SUNNY     85  65  51 S12       29.81F
OGALLALA       MOSUNNY   84  63  48 SE10      29.82F
$$

NEZ005>010-023>029-035>040-094-022200-
NORTH CENTRAL NEBRASKA

CITY           SKY/WX    TMP DP  RH WIND       PRES   REMARKS
AINSWORTH      SUNNY     86  60  41 S14       29.81F
BROKEN BOW     CLOUDY    75  65  70 SE14      29.87S
O`NEILL        MOSUNNY   78  64  62 S18       29.84S
ORD            PTSUNNY   73  62  68 S18       29.86F
THEDFORD       SUNNY     84  63  49 SE13      29.83F
$$

NEZ041-046>049-061>064-073>077-083>087-022200-
SOUTH CENTRAL NEBRASKA

CITY           SKY/WX    TMP DP  RH WIND       PRES   REMARKS
GRAND ISLAND   MOSUNNY   79  63  57 S14G22    29.88F
AURORA         SUNNY     81  63  54 SE15      29.87F
HASTINGS       MOSUNNY   79  65  62 S13G23    29.87F
HEBRON         SUNNY     83  62  50 S14G23    29.88F
HOLDREGE       MOSUNNY   80  64  58 S13G22    29.85F
KEARNEY *      PTSUNNY   79  64  61 S17       29.86F
YORK           PTSUNNY   77  64  65 S15       29.89F
$$

NEZ011>018-030>034-042>045-022200-
NORTHEAST NEBRASKA

CITY           SKY/WX    TMP DP  RH WIND       PRES   REMARKS
NORFOLK        MOSUNNY   78  63  59 S22       29.87F
ALBION         MOSUNNY   74  61  63 S16G22    29.88F
BLAIR          CLOUDY    75  58  56 SE14      29.93F
COLUMBUS *     CLOUDY    73  61  64 S17       29.91F
FREMONT        PTSUNNY   74  60  60 SE15G24   29.93S
TEKAMAH        CLOUDY    80  61  52 S22       29.92F
WAYNE          PTSUNNY   77  63  63 S21       29.89F
$$

NEZ050>053-065>068-078-088>093-022200-
SOUTHEAST NEBRASKA

CITY           SKY/WX    TMP DP  RH WIND       PRES   REMARKS
LINCOLN        PTSUNNY   78  63  59 SE17G24   29.91F
OMAHA EPPLEY   CLOUDY    75  60  59 SE21      29.94F
BEATRICE       PTSUNNY   78  64  61 SE16      29.91F
FALLS CITY     CLOUDY    72  60  66 SE13G21   29.95F
NEBRASKA CITY  CLOUDY    71  55  58 SE14G22   29.96F
PLATTSMOUTH    CLOUDY    68  62  82 SE9       29.94F
$$

NEZ044-045-051>053-067-022200-
OMAHA AREA

CITY           SKY/WX    TMP DP  RH WIND       PRES   REMARKS
OMAHA EPPLEY   CLOUDY    75  60  59 SE21      29.94F
BLAIR          CLOUDY    75  58  56 SE14      29.93F
FREMONT        PTSUNNY   74  60  60 SE15G24   29.93S
MILLARD        CLOUDY    70  63  78 SE10      29.93F
OFFUTT AFB     LGT RAIN  67  63  87 E12       29.94F
PLATTSMOUTH    CLOUDY    68  62  82 SE9       29.94F
WAHOO          FAIR      75  63  64 SE16G22   29.92F
$$


USA.gov is the U.S. government's official web portal to all federal, state and local government web resources and services.